Madisonville, KY

9:48 AM CDT on June 23, 2017 (GMT -0500)
Madisonville

Weather History for K2I0 - November, 2013

Change the Weather History Date:

Tuesday, November 12, 2013

  Actual Average (KOWB) Record (KOWB)
Temperature  
Mean Temperature 36 °F -  
Max Temperature 45 °F 55 °F 79 °F (1949)
Min Temperature 27 °F 35 °F 20 °F (1947)
Degree Days  
Heating Degree Days 28    
Moisture  
Dew Point 28 °F    
Average Humidity 72    
Maximum Humidity 98    
Minimum Humidity 47    
Precipitation  
Precipitation 0.02 in - - ()
Sea Level Pressure  
Sea Level Pressure 30.57 in    
Wind  
Wind Speed 15 mph (NNE)    
Max Wind Speed 22 mph    
Max Gust Speed 30 mph    
Visibility 10 miles    
Events Rain    
Averages and records for this station are not official NWS values.
T = Trace of Precipitation, MM = Missing Value Source: NWS Daily Summary

Daily Weather History Graph

Daily Weather History Graph

Search for Another Location

Airport or City:

Trip Planner

Search our weather history database for the weather conditions in past years. The results will help you decide how hot, cold, wet, or windy it might be!

Date:

Astronomy

Nov. 12, 2013 Rise Set
Actual Time 6:26 AM CST 4:41 PM CST
Civil Twilight 5:58 AM CST 5:08 PM CST
Nautical Twilight 5:26 AM CST 5:40 PM CST
Astronomical Twilight 4:56 AM CST 6:10 PM CST
Moon 1:49 PM CST (11/12) 1:21 AM CST (11/12)
Length of Visible Light 11h 10m
Length of Day
10h 15m
Waxing Gibbous, 76% of the Moon is Illuminated
Nov 12
Waxing Gibbous
Nov 17
Full
Nov 25
Last Quarter
Dec 2
New
Dec 9
First Quarter

Hourly Weather History & Observations

Time (CST) Temp. Windchill Dew Point Humidity Pressure Visibility Wind Dir Wind Speed Gust Speed Precip Events Conditions
12:15 AM 45.7 °F 39.1 °F 41.9 °F 87% 30.30 in 10.0 mi NNE 15.0 mph 23.0 mph N/A   Overcast
12:35 AM 45.0 °F 37.4 °F 41.4 °F 87% 30.31 in 10.0 mi North 18.4 mph 23.0 mph N/A   Overcast
12:55 AM 43.3 °F 36.8 °F 41.0 °F 91% 30.32 in 10.0 mi North 12.7 mph - N/A Rain Light Rain
1:15 AM 42.3 °F 34.4 °F 41.4 °F 97% 30.33 in 10.0 mi North 16.1 mph 23.0 mph N/A   Drizzle
1:35 AM 41.5 °F 33.5 °F 41.0 °F 98% 30.34 in 10.0 mi North 16.1 mph 25.3 mph N/A   Overcast
1:55 AM 41.0 °F 32.2 °F 40.1 °F 97% 30.34 in 10.0 mi North 18.4 mph 21.9 mph N/A   Overcast
2:15 AM 40.5 °F 32.1 °F 39.2 °F 95% 30.36 in 10.0 mi North 16.1 mph 21.9 mph N/A   Drizzle
2:35 AM 39.6 °F 29.5 °F 36.3 °F 88% 30.38 in 10.0 mi NNE 21.9 mph 29.9 mph N/A   Overcast
2:55 AM 37.8 °F 27.4 °F 34.0 °F 86% 30.39 in 7.0 mi NNE 20.7 mph 29.9 mph 0.01 in Rain Rain
3:15 AM 36.7 °F 27.2 °F 33.8 °F 89% 30.40 in 5.0 mi NNE 16.1 mph 26.5 mph 0.01 in Rain Light Rain
3:35 AM 37.8 °F 28.3 °F 34.7 °F 89% 30.41 in 10.0 mi NNE 17.3 mph 23.0 mph 0.01 in Rain Light Rain
3:55 AM 37.4 °F 28.5 °F 36.0 °F 95% 30.42 in 10.0 mi NNE 15.0 mph 19.6 mph 0.01 in   Drizzle
4:15 AM 37.2 °F 29.1 °F 36.1 °F 96% 30.43 in 10.0 mi NNE 12.7 mph - N/A Rain Light Rain
4:35 AM 36.7 °F 27.6 °F 34.2 °F 91% 30.44 in 10.0 mi NNE 15.0 mph 25.3 mph N/A   Overcast
4:55 AM 36.9 °F 27.8 °F 32.2 °F 83% 30.46 in 10.0 mi NNE 15.0 mph 18.4 mph N/A   Overcast
5:15 AM 36.5 °F 27.0 °F 31.5 °F 82% 30.47 in 10.0 mi NNE 16.1 mph - N/A   Overcast
5:35 AM 36.3 °F 26.4 °F 30.6 °F 80% 30.48 in 10.0 mi NNE 17.3 mph 23.0 mph N/A   Overcast
5:55 AM 36.1 °F 27.3 °F 30.7 °F 81% 30.49 in 10.0 mi NNE 13.8 mph - N/A   Overcast
6:15 AM 36.1 °F 26.5 °F 31.5 °F 83% 30.51 in 10.0 mi NNE 16.1 mph - N/A   Overcast
6:35 AM 36.0 °F 26.3 °F 30.4 °F 80% 30.52 in 10.0 mi NNE 16.1 mph 19.6 mph N/A   Overcast
6:55 AM 36.0 °F 26.3 °F 29.8 °F 78% 30.53 in 10.0 mi NNE 16.1 mph 23.0 mph N/A   Overcast
7:15 AM 35.8 °F 26.1 °F 28.9 °F 76% 30.55 in 10.0 mi NNE 16.1 mph 21.9 mph N/A   Overcast
7:35 AM 35.6 °F 25.5 °F 28.2 °F 75% 30.56 in 10.0 mi NNE 17.3 mph 23.0 mph N/A   Mostly Cloudy
7:55 AM 34.9 °F 24.9 °F 27.7 °F 75% 30.58 in 10.0 mi NNE 16.1 mph 23.0 mph N/A   Scattered Clouds
8:15 AM 35.6 °F 26.6 °F 28.2 °F 75% 30.59 in 10.0 mi NNE 13.8 mph 21.9 mph N/A   Clear
8:35 AM 36.9 °F 27.1 °F 29.1 °F 74% 30.60 in 10.0 mi NNE 17.3 mph 23.0 mph N/A   Scattered Clouds
8:55 AM 36.5 °F 27.4 °F 28.9 °F 74% 30.62 in 10.0 mi North 15.0 mph 24.2 mph N/A   Scattered Clouds
9:15 AM 36.5 °F 26.0 °F 28.4 °F 72% 30.62 in 10.0 mi NNE 19.6 mph 26.5 mph N/A   Scattered Clouds
9:35 AM 36.5 °F 27.0 °F 28.0 °F 71% 30.63 in 10.0 mi NNE 16.1 mph 24.2 mph N/A   Scattered Clouds
9:55 AM 38.5 °F 28.9 °F 28.4 °F 67% 30.63 in 10.0 mi North 18.4 mph 23.0 mph N/A   Scattered Clouds
10:15 AM 39.0 °F 30.3 °F 27.0 °F 62% 30.62 in 10.0 mi NNE 16.1 mph 21.9 mph N/A   Scattered Clouds
10:35 AM 39.4 °F 30.7 °F 25.7 °F 58% 30.62 in 10.0 mi North 16.1 mph 24.2 mph N/A   Clear
10:55 AM 39.4 °F 30.1 °F 23.7 °F 54% 30.62 in 10.0 mi NNE 18.4 mph 26.5 mph N/A   Scattered Clouds
11:15 AM 40.5 °F 31.2 °F 24.6 °F 53% 30.61 in 10.0 mi North 19.6 mph 25.3 mph N/A   Scattered Clouds
11:35 AM 40.5 °F 31.5 °F 23.2 °F 50% 30.61 in 10.0 mi NNE 18.4 mph 24.2 mph N/A   Scattered Clouds
11:55 AM 41.2 °F 32.1 °F 22.8 °F 48% 30.61 in 10.0 mi NE 19.6 mph 23.0 mph N/A   Scattered Clouds
12:15 PM 41.9 °F 33.1 °F 23.0 °F 47% 30.61 in 10.0 mi NNE 19.6 mph 28.8 mph N/A   Scattered Clouds
12:35 PM 41.4 °F 33.3 °F 23.9 °F 50% 30.61 in 10.0 mi North 16.1 mph 24.2 mph N/A   Scattered Clouds
12:55 PM 42.1 °F 34.2 °F 24.6 °F 50% 30.61 in 10.0 mi North 16.1 mph 24.2 mph N/A   Mostly Cloudy
1:15 PM 42.3 °F 34.1 °F 24.3 °F 49% 30.60 in 10.0 mi North 17.3 mph 23.0 mph N/A   Scattered Clouds
1:35 PM 40.8 °F 32.0 °F 23.0 °F 49% 30.61 in 10.0 mi North 18.4 mph 28.8 mph N/A   Scattered Clouds
1:55 PM 42.6 °F 35.2 °F 24.1 °F 48% 30.61 in 10.0 mi NNE 15.0 mph 23.0 mph N/A   Mostly Cloudy
2:15 PM 42.4 °F 34.4 °F 23.2 °F 47% 30.62 in 10.0 mi NNE 17.3 mph - N/A   Mostly Cloudy
2:35 PM 41.9 °F 33.4 °F 23.2 °F 47% 30.62 in 10.0 mi North 18.4 mph 24.2 mph N/A   Mostly Cloudy
2:55 PM 40.5 °F 32.1 °F 22.8 °F 49% 30.62 in 10.0 mi North 16.1 mph 20.7 mph N/A   Mostly Cloudy
3:15 PM 41.5 °F 34.2 °F 23.2 °F 48% 30.62 in 10.0 mi NNE 13.8 mph 24.2 mph N/A   Mostly Cloudy
3:35 PM 39.7 °F 31.9 °F 23.5 °F 52% 30.63 in 10.0 mi North 13.8 mph 21.9 mph N/A   Overcast
3:55 PM 38.8 °F 29.7 °F 22.8 °F 53% 30.63 in 10.0 mi NNE 17.3 mph 24.2 mph N/A   Mostly Cloudy
4:15 PM 37.4 °F 29.3 °F 23.0 °F 56% 30.63 in 10.0 mi NNE 12.7 mph 17.3 mph N/A   Scattered Clouds
4:35 PM 37.0 °F 29.8 °F 23.9 °F 59% 30.63 in 10.0 mi North 10.4 mph - N/A   Mostly Cloudy
4:55 PM 35.1 °F 27.9 °F 23.9 °F 64% 30.64 in 10.0 mi North 9.2 mph - N/A   Scattered Clouds
5:15 PM 34.7 °F 26.9 °F 23.7 °F 64% 30.64 in 10.0 mi North 10.4 mph - N/A   Clear
5:35 PM 34.7 °F 27.5 °F 23.7 °F 64% 30.65 in 10.0 mi North 9.2 mph - N/A   Clear
5:55 PM 34.2 °F 27.5 °F 23.9 °F 66% 30.65 in 10.0 mi North 8.1 mph - N/A   Clear
6:15 PM 33.6 °F 26.2 °F 24.3 °F 69% 30.65 in 10.0 mi North 9.2 mph - N/A   Clear
6:35 PM 33.4 °F 27.3 °F 23.9 °F 68% 30.65 in 10.0 mi North 6.9 mph - N/A   Clear
6:55 PM 32.0 °F 26.4 °F 23.5 °F 71% 30.65 in 10.0 mi North 5.8 mph - N/A   Clear
7:15 PM 31.1 °F 26.4 °F 23.4 °F 73% 30.65 in 10.0 mi North 4.6 mph - N/A   Clear
7:35 PM 30.9 °F 25.2 °F 23.5 °F 74% 30.65 in 10.0 mi North 5.8 mph - N/A   Clear
7:55 PM 30.4 °F 24.5 °F 23.4 °F 75% 30.66 in 10.0 mi North 5.8 mph - N/A   Clear
8:15 PM 30.9 °F 25.2 °F 24.4 °F 77% 30.67 in 10.0 mi North 5.8 mph - N/A   Clear
8:35 PM 30.9 °F 25.2 °F 24.8 °F 78% 30.67 in 10.0 mi North 5.8 mph - N/A   Clear
8:55 PM 30.0 °F 23.2 °F 24.6 °F 80% 30.67 in 10.0 mi North 6.9 mph - N/A   Clear
9:15 PM 29.8 °F 23.9 °F 24.6 °F 81% 30.68 in 10.0 mi North 5.8 mph - N/A   Clear
9:35 PM 28.8 °F 21.7 °F 24.3 °F 83% 30.68 in 10.0 mi North 6.9 mph - N/A   Clear
9:55 PM 29.3 °F 22.3 °F 24.8 °F 83% 30.68 in 10.0 mi North 6.9 mph - N/A   Clear
10:15 PM 29.3 °F 23.2 °F 24.8 °F 83% 30.68 in 10.0 mi North 5.8 mph - N/A   Clear
10:35 PM 28.6 °F 22.4 °F 24.4 °F 84% 30.68 in 10.0 mi North 5.8 mph - N/A   Clear
10:55 PM 28.9 °F 21.9 °F 24.6 °F 84% 30.68 in 10.0 mi North 6.9 mph - N/A   Clear
11:15 PM 28.8 °F 23.7 °F 24.3 °F 83% 30.68 in 10.0 mi North 4.6 mph - N/A   Clear
11:35 PM 28.9 °F 21.9 °F 24.1 °F 82% 30.68 in 10.0 mi North 6.9 mph - N/A   Clear
11:55 PM 27.9 °F 21.5 °F 23.7 °F 84% 30.68 in 10.0 mi North 5.8 mph - N/A   Clear